Location: Sungai Anya
(2.6167°N, 114.0500°E)
Time: 19:01:43
(UTC+00:00)

Centaur AC-125 - Pass Details

Date: 19 October 2021
Orbit: 344 x 24305 km, 26.8° (Epoch: 07 December)

Event Time Altitude Azimuth Distance (km) Brightness Sun altitude
Rises 10:38:00 0° 298° (WNW) 14,435 10.4 -7.7°
Reaches altitude 10° 10:56:57 10° 302° (WNW) 8,677 9.1 -12.3°
Maximum altitude 11:15:55 56° 17° (NNE) 1,391 4.1 -17.0°
Enters shadow 11:18:20 29° 83° (E) 1,476 3.9 -17.6°
